Showing default

COSMOS 2269, 23000

Orbit data source: Space-Track

COSMOS 2269, 23000 is a payload satellite owned by VKS (CIS) in LEO that was launched on Sat, 12 Feb 1994 UTC via a TSIKLON-3 launch vehicle from the Plesetsk Missile And Space Complex (PKMTR). Payload-class satellites include a variety of spacecraft equipped with specific instruments for various scientific and technological missions. These include communications satellites like Starlink; space stations such as the ISS; scientific satellites like the Hubble; Earth observation satellites from companies like Planet Labs, Umbra, and HawkEye 360; GPS; miniature CubeSats for education and research; and military/defense satellites.

Loading next visibility...
Identifier
23000, 1994-011B
Orbit
LEO
Country
Flag of CISCIS
Related business
Manufacturer
NPO PM
Mission
Defense Communications
Bus & Motor
STRELA-3, Unknown motor
Mass
225 kg wet, 225 kg dry
Launch date (UTC)
1994-02-12 (32 years ago)
Launch vehicle
TSIKLON-3
Launch site
Plesetsk Missile And Space Complex (PKMTR)
Object type
Payload
Rocket body
Debris
Shape & HBR
Cyl, 0.8 m
Radar Cross Section
1.257 m², Large (>1 m²)

Expand to show TLE details & history
Last TLE update: 13 hours ago

TLE from 13 hours ago
0 COSMOS 2269
1 23000U 94011B   25260.76930559  .00000022  00000-0  61912-4 0  9996
2 23000  82.5677 135.0865 0007995  85.6246 343.2188 12.61934504455313
Epoch: 2025-09-17T18:27Z
TLE epoch observation values (Epoch: 2025-09-17T18:27:48.002Z)
Latitude
67.68318°
Longitude
-120.36851°
Altitude
1,420.69 km
Speed
7.159 km/s
True Right ascension
10h 14m 05s
True Declination
67° 34' 21"
Sunlit
Object was in daylight at epoch
Visualization orbit readout
Latitude
Unknown
Longitude
Unknown
Altitude
Unknown
Speed
Unknown
Apparent Right ascension
Unknown
Apparent Declination
Unknown
Sunlit
N/A
Visualization observer readout
Local Sidereal Time
00:24:18
Azimuth
Unknown
Elevation
Unknown
Doppler factor
Unknown
Orbital elements
Apogee altitude
1,418.52 km
Perigee altitude
1,406.063 km
Semi-major axis
7,790.428 km
Eccentricity
0.0008
Inclination
82.5677°
RAAN
135.0865°
Arg. of periapsis
85.6246°
True anomaly
343.19232°
Mean anomaly
343.2188°
Eccentric anomaly
343.20556°
Mean motion
3.15647 °/min
Orbital period
114.05 mins
BSTAR
0.000061912
Loading maneuver chart data...
Computing Atmospheric mass density...
Loading historical data...
Loading historical data...
Loading historical data...
Loading historical data...
Loading historical data...
Loading historical data...
Loading historical data...

Documentation

Showing up to 5 results
|